Showing default

LEO 1, 43113

Orbit data source: Space-Track

LEO 1, 43113 is a payload satellite owned by Telesat (Loral) (US) in SSO that was launched on Fri, 12 Jan 2018 UTC via a PSLV-XL launch vehicle from the Sirharikota (SRI). Payloads include a variety of satellites, spacecraft, and rockets equipped with specific instruments for various scientific and technological missions. These include communications satellites like Starlink; space stations such as the ISS; scientific satellites like the Hubble; Earth observation satellites from companies like Planet Labs, Umbra, and HawkEye 360; GPS; miniature CubeSats for education and research; and military/defense satellites.

Loading next visibility...
LEO 1 details
Identifier
43113, 2018-004C
Orbit
SSO
Last TLE update10 hours ago
Origin
Flag of USTelesat (Loral) (US)
ManufacturerSSTL (Astrium)
MissionPartially operational Commercial Communications
Bus & MotorSSTL-42, Unknown motor
Mass~100 kg wet, ~100 kg dry
Launch date (UTC)
2018-01-12 (7 years ago)
Launch vehicle
PSLV-XL
Launch site
Sirharikota (SRI)
Object type
Payload
Rocket body
Debris
Shape & HBRBox + 1 Dish, 1 m
Radar Cross Section0.735 m², Medium (>0.1 m² and < 1m²)

Expand to show TLE details & history

TLE from 10 hours ago
0 LEO 1
1 43113U 18004C   24361.11826992  .00007412  00000-0  54074-3 0  9996
2 43113  99.2943 198.5535 0366359 284.8348  71.2545 14.63142142358665
Epoch: 2024-12-26T02:50Z
Definitive object data (Epoch: 2024-12-26T02:50:18.521Z)
Latitude-0.00002°
Longitude60.87408°
Altitude611.5 km
Speed7.593 km/s
True Right ascension13h 14m 12s
True Declination0° 00' 00"
Sunlit
Object was in daylight at TLE epoch
Visualization TLE readout
Latitude-40.7049°
Longitude69.37679°
Altitude484.369 km
Speed7.737 km/s
Apparent Right ascension18h 23m 02s
Apparent Declination-73° 18' 27"
Sunlit
Object is in daylight
Visualization observer readout
Local Sidereal Time11:51:51
Azimuth158.149° S
Elevation-40.128°
Doppler factor1
Orbital elements
Apogee altitude938.759 km
Perigee altitude421.584 km
Semi-major axis7,058.308 km
Eccentricity0.0366359
Inclination99.2943°
RAAN198.5535°
Arg. of periapsis284.8348°
True anomaly75.28598°
Mean anomaly71.2545°
Eccentric anomaly73.26468°
Mean motion3.66009 °/min
BSTAR0.00054074
Orbital period98.36 mins
Loading maneuver chart data...

LEO 1 Visibility forecast

Observer location: undefined°, undefined

Span
Click to sort rows by Start time (UTC) header in descending order
Start Az.
Max El. time (UTC)
Max El. Az.
Max El.
End time (UTC)
End Az.
9 mins2024-12-26 12:48:20.443Z140.58° SSE2024-12-26 12:52:20.443Z85.697° E35.722°2024-12-26 12:57:20.443Z359.39° N
5 mins2024-12-26 14:28:20.443Z238.053° WSW2024-12-26 14:30:20.443Z268.677° W19.781°2024-12-26 14:33:20.443Z308.095° NW
9 mins2024-12-27 02:24:20.443Z13.113° NNE2024-12-27 02:29:20.443Z211.405° SW44.061°2024-12-27 02:33:20.443Z197.971° SSW
4 mins2024-12-27 04:03:20.443Z321.969° NNW2024-12-27 04:05:20.443Z299.953° NW13.698°2024-12-27 04:07:20.443Z278.386° WNW
4 mins2024-12-27 11:51:20.443Z78.187° E2024-12-27 11:53:20.443Z53.611° ENE14.413°2024-12-27 11:55:20.443Z31.014° NE
|